Location: Gollag?dem
(16.8053°N, 80.8024°E)
Time: 10:17:16
(UTC+00:00)

Cosmos 292 Rocket - Pass Details

Date: 13 August 2020
Orbit: 674 x 694 km, 74.1° (Epoch: 18 September)

Event Time Altitude Azimuth Distance (km) Brightness Sun altitude
Rises 13:19:26 0° 350° (N) 3,018 7.5 -4.6°
Reaches altitude 10° 13:21:45 10° 353° (N) 2,104 6.6 -5.1°
Maximum altitude 13:26:27 67° 76° (ENE) 731 3.7 -6.2°
Drops below altitude 10° 13:31:10 10° 159° (SSE) 2,110 5.9 -7.3°
Sets 13:33:28 0° 162° (SSE) 3,027 6.7 -7.8°
